Regional Weather Roundup
Issued by NWS Wakefield, VA

Home | Current Version | Previous Version | Text Only | Print | Product List | Glossary On
Versions: 1 2 3 4 5 6 7 8 9 10 11 12 13 14 15 16 17 18 19 20 21 22 23 24 25 26 27 28
000
ASUS41 KAKQ 171215
RWRAKQ

REGIONAL WEATHER ROUNDUP
NATIONAL WEATHER SERVICE WAKEFIELD VA
700 AM EST TUE JAN 17 2017

Note: "fair" indicates few or no clouds below 12,000 feet with no
significant weather and/or obstructions to visibility. * = Denotes
station may not report precipitation (e.g., rain,snow,etc.),
thunder or fog.

VAZ042-051-052>054-056-171300-
NORTHERN VIRGINIA

CITY           SKY/WX    TMP DP  RH WIND       PRES   REMARKS
WASH NATIONAL  CLOUDY    42  40  92 CALM      30.20S
DULLES         CLOUDY    40  38  93 E3        30.18S
FORT BELVOIR   CLOUDY    40  39  95 CALM      30.20R
QUANTICO       CLOUDY    42  41  96 CALM      30.21S
FREDERICKSBRG* CLOUDY    42  42 100 CALM      30.19R
STAFFORD*      CLOUDY    40  40 100 CALM      30.23R
WARRENTON      CLOUDY    40  37  91 CALM      30.17F FOG
CULPEPER*      CLOUDY    41  40  99 CALM      30.19R FOG
MANASSAS*      NOT AVBL
LEESBURG*      CLOUDY    43  43 100 MISG      30.19R FOG
WINCHESTER     CLOUDY    36  36 100 CALM      30.15S FOG
FRONT ROYAL*   CLOUDY    39  39 100 CALM      30.14F
LURAY*         CLOUDY    43  43 100 CALM      30.14F
$$

VAZ048-049-060>072-079>083-171300-
CENTRAL AND SOUTH CENTRAL VIRGINIA

CITY           SKY/WX    TMP DP  RH WIND       PRES   REMARKS
RICHMOND       MOCLDY    43  42  97 S6        30.21S
CHESTERFIELD*  CLOUDY    43  27  52 S3        30.23S
PETERSBURG*    CLOUDY    43  41  93 CALM      30.23S FOG
HANOVER        CLOUDY    43  40  89 S6        30.22R
TAPPAHANNOCK*  CLOUDY    43  43 100 S5        30.22S FOG
QUINTON*       CLOUDY    42  42 100 MISG      30.22S FOG
CHARLOTTSVILLE CLOUDY    42  39  89 SW3       30.16S
GORDONSVILLE*  CLOUDY    40  39  97 CALM      30.16F
ORANGE*          N/A     41  41 100 CALM      30.19S
LOUISA*        CLOUDY    45  43  93 S3        30.16S
BUMPASS*       FAIR      41  41 100 CALM      30.19R
FARMVILLE*     MOCLDY    41  41 100 S5        30.19S
CREWE*         PTSUNNY   42  42 100 CALM      30.20S
FORT PICKETT*  CLOUDY    44  40  88 S6        30.21S
CHASE CITY*    CLOUDY    45  43  95 CALM      30.22S
CLARKSVILLE*   CLOUDY    45  43  93 CALM      30.23S
SOUTH HILL*    CLOUDY    45  43  94 S6        30.29S
LAWRENCEVILLE* CLOUDY    45  43  93 S3        30.23S
EMPORIA*       CLOUDY    43  41  93 NE3       30.27R
$$

VAZ088>098-171300-
SOUTHEAST VIRGINIA

CITY           SKY/WX    TMP DP  RH WIND       PRES   REMARKS
NORFOLK        CLOUDY    45  42  89 S5        30.25R
VIRGINIA BEACH CLOUDY    44  41  89 S5        30.24S
NORFOLK NAVAL  CLOUDY    46  43  89 SW5       30.27R FOG
WEST POINT*    CLOUDY    43  42  96 S6        30.24S
SALUDA*        CLOUDY    42  41  97 S5        30.23S
NEWPORT NEWS   CLOUDY    44  42  93 S7        30.25S
LANGLEY AFB    CLOUDY    45  42  90 SW3       30.24S
FORT EUSTIS    CLOUDY    44  41  89 S3        30.23R
WILLIAMSBURG*  CLOUDY    45  43  93 CALM      30.25S
HR EXEC AP*    CLOUDY    45  39  81 CALM      30.25R
FRANKLIN*      CLOUDY    45  42  89 S5        30.26S
US460-WAKEFLD  CLOUDY    44  43  96 S3        30.24S
$$

VAZ020-022-025-037-045-171300-
WEST CENTRAL AND SOUTHWEST VIRGINIA

CITY           SKY/WX    TMP DP  RH WIND       PRES   REMARKS
STAUNTON*      CLOUDY    42  41  95 SE3       30.17S
WAYNESBORO*    CLOUDY    43  41  93 CALM      30.15S
HOT SPRINGS VA DRIZZLE   48  46  93 SW10      30.14R
LYNCHBURG      CLOUDY    39  37  92 S5        30.19F
DANVILLE       MOCLDY    45  44  97 S5        30.21F
SOUTH BOSTON*  CLOUDY    45  43  95 S5        30.21F
MARTINSVILLE   CLOUDY    48  45  90 SW3       30.23R
ROANOKE        LGT RAIN  41  41 100 CALM      30.21S FOG
BLACKSBURG     LGT RAIN  44  44 100 CALM      30.20S
DUBLIN*        CLOUDY    44  44 100 CALM      30.18F FOG
MARION*        DRIZZLE   45  44  96 CALM      30.18F
HILLSVILLE*    CLOUDY    49  49 100 CALM      30.15F
RICHLANDS*     LGT RAIN N/A N/A N/A S3        30.14R
WISE*          RAIN      52  52 100 S3        30.14F
ABINGDON*      CLOUDY    52  49  90 CALM      30.14R
$$

MDZ021>025-VAZ099-100-171300-
SOUTHERN MARYLAND AND THE DELMARVA PENINSULA

CITY           SKY/WX    TMP DP  RH WIND       PRES   REMARKS
PATUXENT RIVER CLOUDY    41  38  89 S6        30.21F
BAY BRIDGE APT CLOUDY    39  37  93 SE3       30.21F FOG
LEONARDTOWN    CLOUDY    41  37  87 CALM      30.21F
DOVER          CLOUDY    37  37 100 SE3       30.21S
GEORGETOWN     CLOUDY    41  37  86 CALM      30.23F
EASTON         PTCLDY    39  37  93 SE6       30.24F
CAMBRIDGE      CLOUDY    37  37 100 SE3       30.21S
SALISBURY      CLOUDY    40  37  89 S5        30.21F
OCEAN CITY     CLOUDY    43  38  82 CALM      30.23F
WALLOPS ISLAND CLOUDY    43  40  89 CALM      30.24F
ACCOMACK*      CLOUDY    43  41  91 CALM      30.23F
$$

NCZ012>017-030>032-171300-
NORTH CENTRAL AND EASTERN NORTH CAROLINA

CITY           SKY/WX    TMP DP  RH WIND       PRES   REMARKS
ROANOKE RAPIDS CLOUDY    45  43  93 CALM      30.26S
RALEIGH        DRZL/FOG  48  47  96 SW7       30.26S VSB 1/2
ELIZABETH CITY CLOUDY    43  41  93 CALM      30.27S
AHOSKIE*         N/A     44  41  90 CALM      30.27R
EDENTON*       CLOUDY    46  41  82 CALM      30.27R
CURRITUCK*     CLOUDY    43  43 100 CALM      30.27S
KILL DEVIL HLS NOT AVBL
MANTEO         CLOUDY    42  42 100 CALM      30.27S
CAPE HATTERAS  CLOUDY    48  44  86 CALM      30.26S
TARBORO*       NOT AVBL
GOLDSBORO      CLOUDY    45  45 100 CALM      30.25R
WASHINGTON       N/A     45  41  85 CALM      30.28R
GREENVILLE     NOT AVBL
NEW BERN       MOCLDY    43  41  93 CALM      30.28R
WILMINGTON     CLOUDY    48  47  96 CALM      30.26R
$$

VAZ048-171300-
ELSEWHERE

CITY           SKY/WX    TMP DP  RH WIND       PRES   REMARKS
HARRISBURG PA  CLOUDY    36  30  79 CALM      30.19F
BALTIMORE      CLOUDY    39  38  96 E5        30.19F
ANNAPOLIS      CLOUDY    41  36  82 VRB3      30.20F
ANDREWS AFB    CLOUDY    39  38  93 S3        30.18S
PHILADELPHIA   CLOUDY    39  31  72 SE3       30.22F
HENDERSON NC   CLOUDY    44  40  88 SW7       30.24S
GREENSBORO     FOG       48  48 100 SW8       30.21F VSB 1
ROCKY MOUNT    CLOUDY    48  46  93 CALM      30.27R
$$

VAZ100-171300-
MARINE

STATION/POSITION TIME  TEMP    WIND        PRES    WAVE   SWELL
                       AIR SEA DIR/SP/G            HT/PER HT/PER
                 (UTC) (F)     (DEG/KT/KT) (MB)    (FT/S) (FT/S)
CAPE MAY NJ      1142   40 40  110/  3/  5 1023.1F
LEWES DE         1148      41  190/  4/  6 1023.2F
OCEAN-CITY-INLET 1148      42  150/  2/  3 1023.9F
WACHAPREAGUE VA  1148   44 45  200/  3/  3 1023.6F
THOMAS POINT MD  1200   40 38  150/  7/  7   N/A
GOOSES REEF MD   1200   40     170/  8/ 10 1023.3
COVE POINT MD    1148   40     170/ 11/ 12 1023.4F
SOLOMONS ISLAND  1148      40  150/  5/  6   N/A
BISHOPS HEAD MD  1148   40 40  160/  9/ 10 1023.1F
PINEY POINT MD   1148          170/  6/  7   N/A
POTOMAC MD       1200   40 40  160/  4/  6 1022.4
CAMBRIDGE MD     1148   40 38  150/  3/  5 1022.5F
LEWISETTA VA     1148   42 42  190/  4/  4 1023.0F
RAPPAHANNOCK LGT 1148          170/  9/  9 1024.3S
STINGRAY PT      1150   41     200/  6/  8 1024.1F
YORK RVR RNG VA  1148   43     190/  8/  9 1023.3S
YORKTOWN VA      1148   44 42  210/  5/  7 1023.7F
JAMESTOWN VA     1200   43 44  140/  6/  6   N/A     0
DOMINION TERM VA 1148   44     220/  5/  6 1024.3R
KIPTOPEKE VA     1148      42  180/  4/  4   N/A
CHES BAY BRIDGE  1148   44 42  190/  5/  6 1024.2R
CAPE HENRY VA    1148   44     190/  5/  7   N/A
WILLOUBY STN VA  1148   44     220/  5/  6 1025.1R
S CRANEY ISL VA  1148   44     200/  4/  6 1024.3R
CAPE HENRY BUOY  1142      47                N/A     2/10
OFFSHORE WE BUOY 1151      49                N/A     2/ 8
64NM E OF VA BCH 1150   53 55   10/  2/  4 1024.0F   2/10   2/10
DUCK PIER NC     1148   44 44  330/  2/  3 1024.5R
44100 DUCK FRF   1135      46                N/A     2/10
44056 DUCK FRF   1130      44                N/A     2/ 8
OREGON INLET NC  1136   44 48  360/  3/  4 1024.5F
HATTERAS NC      1148      52   CALM  /  2 1024.3R
DIAMOND SHLS NC  1150   56 72   10/ 10/ 12 1024.4R   2/ 8   2/ 8
CAPE LOOKOUT NC  1100   49      10/  3/  3 1024.0R
$$




USA.gov is the U.S. government's official web portal to all federal, state and local government web resources and services.